Location: Risskov
(56.1972°N, 10.2480°E)
Time: 23:46:06
(UTC+00:00)

APEX - Pass Details

Date: 05 July 2020
Orbit: 333 x 1107 km, 69.9° (Epoch: 14 August)

Event Time Altitude Azimuth Distance (km) Brightness Sun altitude
Rises 23:40:43 0° 313° (NW) 2,158 7.0 -11.1°
Reaches altitude 10° 23:43:04 10° 293° (WNW) 1,284 5.5 -11.0°
Maximum altitude 23:45:02 18° 247° (WSW) 921 4.2 -11.0°
Enters shadow 23:45:59 15° 220° (SW) 1,019 4.2 -11.0°
